Time,TemperatureF,DewpointF,PressureIn,WindDirection,WindDirectionDegrees,WindSpeedMPH,WindSpeedGustMPH,Humidity,HourlyPrecipIn,Conditions,Clouds,dailyrainin,SolarRadiationWatts/m^2,SoftwareType,DateUTC
2013-03-11 00:22:00,3.0,-1.0,-100.00,NNW,336,1.0,3.0,82,0.00,,,0.06,0.000000,,2013-03-11 06:22:00,
2013-03-11 00:32:00,3.0,-1.0,-100.00,NNW,336,1.0,3.0,82,0.00,,,0.06,0.000000,,2013-03-11 06:32:00,
2013-03-11 00:42:00,3.0,-1.0,-100.00,NNW,336,1.0,3.0,82,0.00,,,0.06,0.000000,,2013-03-11 06:42:00,
2013-03-11 00:52:00,3.0,-1.0,-100.00,NNW,336,1.0,3.0,82,0.00,,,0.06,0.000000,,2013-03-11 06:52:00,
2013-03-11 01:22:00,5.0,0.0,-100.00,SW,222,1.0,4.0,81,0.00,,,0.06,0.000000,,2013-03-11 07:22:00,
2013-03-11 01:32:00,5.0,0.0,-100.00,SW,222,1.0,4.0,81,0.00,,,0.06,0.000000,,2013-03-11 07:32:00,
2013-03-11 01:42:00,5.0,0.0,-100.00,SW,222,1.0,4.0,81,0.00,,,0.06,0.000000,,2013-03-11 07:42:00,
2013-03-11 01:52:00,5.0,0.0,-100.00,SW,222,1.0,4.0,81,0.00,,,0.06,0.000000,,2013-03-11 07:52:00,
2013-03-11 02:22:00,11.0,8.0,-100.00,SE,124,4.0,5.0,88,0.00,,,0.06,0.000000,,2013-03-11 08:22:00,
2013-03-11 02:32:00,11.0,8.0,-100.00,SE,124,4.0,5.0,88,0.00,,,0.06,0.000000,,2013-03-11 08:32:00,
2013-03-11 02:42:00,11.0,8.0,-100.00,SE,124,4.0,5.0,88,0.00,,,0.06,0.000000,,2013-03-11 08:42:00,
2013-03-11 02:52:00,11.0,8.0,-100.00,SE,124,4.0,5.0,88,0.00,,,0.06,0.000000,,2013-03-11 08:52:00,
2013-03-11 03:23:00,6.0,1.0,-100.00,ESE,109,2.0,6.0,80,0.00,,,0.06,0.000000,,2013-03-11 09:23:00,
2013-03-11 03:32:00,6.0,1.0,-100.00,ESE,109,2.0,6.0,80,0.00,,,0.06,0.000000,,2013-03-11 09:32:00,
2013-03-11 03:42:00,6.0,1.0,-100.00,ESE,109,2.0,6.0,80,0.00,,,0.06,0.000000,,2013-03-11 09:42:00,
2013-03-11 03:52:00,6.0,1.0,-100.00,ESE,109,2.0,6.0,80,0.00,,,0.06,0.000000,,2013-03-11 09:52:00,
2013-03-11 04:22:00,10.0,7.0,-100.00,East,85,1.0,4.0,86,0.00,,,0.06,0.000000,,2013-03-11 10:22:00,
2013-03-11 04:32:00,10.0,7.0,-100.00,East,85,1.0,4.0,86,0.00,,,0.06,0.000000,,2013-03-11 10:32:00,
2013-03-11 04:42:00,10.0,7.0,-100.00,East,85,1.0,4.0,86,0.00,,,0.06,0.000000,,2013-03-11 10:42:00,
2013-03-11 04:52:00,10.0,7.0,-100.00,East,85,1.0,4.0,86,0.00,,,0.06,0.000000,,2013-03-11 10:52:00,
2013-03-11 05:22:00,14.0,10.0,-100.00,ENE,77,3.0,5.0,85,0.00,,,-99.99,0.000000,,2013-03-11 11:22:00,
2013-03-11 05:32:00,14.0,10.0,-100.00,ENE,77,3.0,5.0,85,0.00,,,-99.99,0.000000,,2013-03-11 11:32:00,
2013-03-11 05:42:00,14.0,10.0,-100.00,ENE,77,3.0,5.0,85,0.00,,,-99.99,0.000000,,2013-03-11 11:42:00,
2013-03-11 05:52:00,14.0,10.0,-100.00,ENE,77,3.0,5.0,85,0.00,,,-99.99,0.000000,,2013-03-11 11:52:00,
2013-03-11 06:22:00,13.0,9.0,-100.00,SE,126,1.0,3.0,84,0.00,,,-99.99,0.000000,,2013-03-11 12:22:00,
2013-03-11 06:32:00,13.0,9.0,-100.00,SE,126,1.0,3.0,84,0.00,,,-99.99,0.000000,,2013-03-11 12:32:00,
2013-03-11 06:43:00,13.0,9.0,-100.00,SE,126,1.0,3.0,84,0.00,,,-99.99,0.000000,,2013-03-11 12:43:00,
2013-03-11 06:52:00,13.0,9.0,-100.00,SE,126,1.0,3.0,84,0.00,,,-99.99,0.000000,,2013-03-11 12:52:00,
2013-03-11 07:22:00,16.0,11.0,-100.00,SE,124,4.0,6.0,79,0.00,,,-99.99,0.000000,,2013-03-11 13:22:00,
2013-03-11 07:32:00,16.0,11.0,-100.00,SE,124,4.0,6.0,79,0.00,,,-99.99,0.000000,,2013-03-11 13:32:00,
2013-03-11 07:42:00,16.0,11.0,-100.00,SE,124,4.0,6.0,79,0.00,,,-99.99,0.000000,,2013-03-11 13:42:00,
2013-03-11 07:52:00,16.0,11.0,-100.00,SE,124,4.0,6.0,79,0.00,,,-99.99,0.000000,,2013-03-11 13:52:00,
2013-03-11 08:22:00,16.0,11.0,-100.00,SE,129,4.0,7.0,79,0.00,,,0.06,3.000000,,2013-03-11 14:22:00,
2013-03-11 08:33:00,16.0,11.0,-100.00,SE,129,4.0,7.0,79,0.00,,,0.06,3.000000,,2013-03-11 14:33:00,
2013-03-11 08:42:00,16.0,11.0,-100.00,SE,129,4.0,7.0,79,0.00,,,0.06,3.000000,,2013-03-11 14:42:00,
2013-03-11 08:52:00,16.0,11.0,-100.00,SE,129,4.0,7.0,79,0.00,,,0.06,3.000000,,2013-03-11 14:52:00,
2013-03-11 09:22:00,19.0,11.0,-100.00,SW,218,4.0,9.0,72,0.00,,,0.06,52.000000,,2013-03-11 15:22:00,
2013-03-11 09:32:00,19.0,11.0,-100.00,SW,218,4.0,9.0,72,0.00,,,0.06,52.000000,,2013-03-11 15:32:00,
2013-03-11 09:42:00,19.0,11.0,-100.00,SW,218,4.0,9.0,72,0.00,,,0.06,52.000000,,2013-03-11 15:42:00,
2013-03-11 09:52:00,19.0,11.0,-100.00,SW,218,4.0,9.0,72,0.00,,,0.06,52.000000,,2013-03-11 15:52:00,
2013-03-11 10:22:00,21.0,12.0,-100.00,South,180,8.0,14.0,67,0.00,,,0.04,140.000000,,2013-03-11 16:22:00,
2013-03-11 10:32:00,21.0,12.0,-100.00,South,180,8.0,14.0,67,0.00,,,0.04,140.000000,,2013-03-11 16:32:00,
2013-03-11 10:43:00,21.0,12.0,-100.00,South,180,8.0,14.0,67,0.00,,,0.04,140.000000,,2013-03-11 16:43:00,
2013-03-11 10:52:00,21.0,12.0,-100.00,South,180,8.0,14.0,67,0.00,,,0.04,140.000000,,2013-03-11 16:52:00,
2013-03-11 11:26:00,26.0,14.0,-100.00,South,177,10.0,17.0,59,0.00,,,-99.99,282.000000,,2013-03-11 17:26:00,
2013-03-11 11:35:00,26.0,14.0,-100.00,South,177,10.0,17.0,59,0.00,,,-99.99,282.000000,,2013-03-11 17:35:00,
2013-03-11 11:42:00,26.0,14.0,-100.00,South,177,10.0,17.0,59,0.00,,,-99.99,282.000000,,2013-03-11 17:42:00,
2013-03-11 11:52:00,26.0,14.0,-100.00,South,177,10.0,17.0,59,0.00,,,-99.99,282.000000,,2013-03-11 17:52:00,
2013-03-11 12:23:00,29.0,16.0,-100.00,SSW,206,9.0,20.0,57,0.00,,,0.02,425.000000,,2013-03-11 18:23:00,
2013-03-11 12:32:00,29.0,16.0,-100.00,SSW,206,9.0,20.0,57,0.00,,,0.02,425.000000,,2013-03-11 18:32:00,
2013-03-11 12:42:00,29.0,16.0,-100.00,SSW,206,9.0,20.0,57,0.00,,,0.02,425.000000,,2013-03-11 18:42:00,
2013-03-11 12:52:00,29.0,16.0,-100.00,SSW,206,9.0,20.0,57,0.00,,,0.02,425.000000,,2013-03-11 18:52:00,
2013-03-11 13:22:00,31.0,18.0,-100.00,SW,218,10.0,20.0,59,0.00,,,0.01,426.000000,,2013-03-11 19:22:00,
2013-03-11 13:33:00,31.0,18.0,-100.00,SW,218,10.0,20.0,59,0.00,,,0.01,426.000000,,2013-03-11 19:33:00,
2013-03-11 13:42:00,31.0,18.0,-100.00,SW,218,10.0,20.0,59,0.00,,,0.01,426.000000,,2013-03-11 19:42:00,
2013-03-11 13:52:00,31.0,18.0,-100.00,SW,218,10.0,20.0,59,0.00,,,0.01,426.000000,,2013-03-11 19:52:00,
2013-03-11 14:22:00,34.0,18.0,-100.00,SW,232,10.0,21.0,51,0.01,,,0.01,475.000000,,2013-03-11 20:22:00,
2013-03-11 14:32:00,34.0,18.0,-100.00,SW,232,10.0,21.0,51,0.01,,,0.01,475.000000,,2013-03-11 20:32:00,
2013-03-11 14:43:00,34.0,18.0,-100.00,SW,232,10.0,21.0,51,0.01,,,0.01,475.000000,,2013-03-11 20:43:00,
2013-03-11 14:52:00,34.0,18.0,-100.00,SW,232,10.0,21.0,51,0.01,,,0.01,475.000000,,2013-03-11 20:52:00,
2013-03-11 15:22:00,34.0,16.0,-100.00,WSW,241,14.0,23.0,48,0.00,,,0.01,529.000000,,2013-03-11 21:22:00,
2013-03-11 15:32:00,34.0,16.0,-100.00,WSW,241,14.0,23.0,48,0.00,,,0.01,529.000000,,2013-03-11 21:32:00,
2013-03-11 15:43:00,34.0,16.0,-100.00,WSW,241,14.0,23.0,48,0.00,,,0.01,529.000000,,2013-03-11 21:43:00,
2013-03-11 15:52:00,34.0,16.0,-100.00,WSW,241,14.0,23.0,48,0.00,,,0.01,529.000000,,2013-03-11 21:52:00,
2013-03-11 16:22:00,34.0,18.0,-100.00,WSW,257,15.0,31.0,52,0.00,,,0.01,355.000000,,2013-03-11 22:22:00,
2013-03-11 16:32:00,34.0,18.0,-100.00,WSW,257,15.0,31.0,52,0.00,,,0.01,355.000000,,2013-03-11 22:32:00,
2013-03-11 16:43:00,34.0,18.0,-100.00,WSW,257,15.0,31.0,52,0.00,,,0.01,355.000000,,2013-03-11 22:43:00,
2013-03-11 16:52:00,34.0,18.0,-100.00,WSW,257,15.0,31.0,52,0.00,,,0.01,355.000000,,2013-03-11 22:52:00,
2013-03-11 17:22:00,34.0,18.0,-100.00,West,265,15.0,29.0,52,0.00,,,0.01,310.000000,,2013-03-11 23:22:00,
2013-03-11 17:32:00,34.0,18.0,-100.00,West,265,15.0,29.0,52,0.00,,,0.01,310.000000,,2013-03-11 23:32:00,
2013-03-11 17:43:00,34.0,18.0,-100.00,West,265,15.0,29.0,52,0.00,,,0.01,310.000000,,2013-03-11 23:43:00,
2013-03-11 17:52:00,34.0,18.0,-100.00,West,265,15.0,29.0,52,0.00,,,0.01,310.000000,,2013-03-11 23:52:00,
2013-03-11 18:23:00,31.0,19.0,-100.00,West,260,12.0,23.0,61,0.00,,,0.01,193.000000,,2013-03-12 00:23:00,
2013-03-11 18:33:00,31.0,19.0,-100.00,West,260,12.0,23.0,61,0.00,,,0.01,193.000000,,2013-03-12 00:33:00,
2013-03-11 18:42:00,31.0,19.0,-100.00,West,260,12.0,23.0,61,0.00,,,0.01,193.000000,,2013-03-12 00:42:00,
2013-03-11 18:53:00,31.0,19.0,-100.00,West,260,12.0,23.0,61,0.00,,,0.01,193.000000,,2013-03-12 00:53:00,
2013-03-11 19:22:00,29.0,20.0,-100.00,WSW,253,9.0,24.0,70,0.00,,,0.01,23.000000,,2013-03-12 01:22:00,
2013-03-11 19:33:00,29.0,20.0,-100.00,WSW,253,9.0,24.0,70,0.00,,,0.01,23.000000,,2013-03-12 01:33:00,
2013-03-11 19:42:00,29.0,20.0,-100.00,WSW,253,9.0,24.0,70,0.00,,,0.01,23.000000,,2013-03-12 01:42:00,
2013-03-11 19:52:00,29.0,20.0,-100.00,WSW,253,9.0,24.0,70,0.00,,,0.01,23.000000,,2013-03-12 01:52:00,
2013-03-11 20:22:00,29.0,20.0,-100.00,WSW,249,11.0,19.0,69,0.00,,,0.01,0.000000,,2013-03-12 02:22:00,
2013-03-11 20:32:00,29.0,20.0,-100.00,WSW,249,11.0,19.0,69,0.00,,,0.01,0.000000,,2013-03-12 02:32:00,
2013-03-11 20:42:00,29.0,20.0,-100.00,WSW,249,11.0,19.0,69,0.00,,,0.01,0.000000,,2013-03-12 02:42:00,
2013-03-11 20:52:00,29.0,20.0,-100.00,WSW,249,11.0,19.0,69,0.00,,,0.01,0.000000,,2013-03-12 02:52:00,
2013-03-11 21:22:00,27.0,22.0,-100.00,WNW,295,10.0,16.0,82,0.00,,,0.01,0.000000,,2013-03-12 03:22:00,
2013-03-11 21:32:00,27.0,22.0,-100.00,WNW,295,10.0,16.0,82,0.00,,,0.01,0.000000,,2013-03-12 03:32:00,
2013-03-11 21:42:00,27.0,22.0,-100.00,WNW,295,10.0,16.0,82,0.00,,,0.01,0.000000,,2013-03-12 03:42:00,
2013-03-11 21:52:00,27.0,22.0,-100.00,WNW,295,10.0,16.0,82,0.00,,,0.01,0.000000,,2013-03-12 03:52:00,
2013-03-11 22:22:00,26.0,25.0,-100.00,South,174,2.0,18.0,94,0.00,,,0.01,0.000000,,2013-03-12 04:22:00,
2013-03-11 22:32:00,26.0,25.0,-100.00,South,174,2.0,18.0,94,0.00,,,0.01,0.000000,,2013-03-12 04:32:00,
2013-03-11 22:43:00,26.0,25.0,-100.00,South,174,2.0,18.0,94,0.00,,,0.01,0.000000,,2013-03-12 04:43:00,
2013-03-11 22:52:00,26.0,25.0,-100.00,South,174,2.0,18.0,94,0.00,,,0.01,0.000000,,2013-03-12 04:52:00,
2013-03-11 23:22:00,27.0,16.0,-100.00,NW,318,13.0,27.0,62,0.00,,,0.01,0.000000,,2013-03-12 05:22:00,
2013-03-11 23:32:00,27.0,16.0,-100.00,NW,318,13.0,27.0,62,0.00,,,0.01,0.000000,,2013-03-12 05:32:00,
2013-03-11 23:42:00,27.0,16.0,-100.00,NW,318,13.0,27.0,62,0.00,,,0.01,0.000000,,2013-03-12 05:42:00,
2013-03-11 23:52:00,27.0,16.0,-100.00,NW,318,13.0,27.0,62,0.00,,,0.01,0.000000,,2013-03-12 05:52:00,